Year,Month,Day,Hour,Minute,Value (Times are PST for temperature in C)
2019,02,22,00,00,1.20
2019,02,22,00,01,1.20
2019,02,22,00,02,1.20
2019,02,22,00,03,1.20
2019,02,22,00,04,1.20
2019,02,22,00,05,1.20
2019,02,22,00,06,1.20
2019,02,22,00,07,1.20
2019,02,22,00,08,1.20
2019,02,22,00,09,1.20
2019,02,22,00,10,1.20
2019,02,22,00,11,1.30
2019,02,22,00,12,1.30
2019,02,22,00,13,1.30
2019,02,22,00,14,1.30
2019,02,22,00,15,1.30
2019,02,22,00,16,1.30
2019,02,22,00,17,1.30
2019,02,22,00,18,1.20
2019,02,22,00,19,1.20
2019,02,22,00,20,1.20
2019,02,22,00,21,1.30
2019,02,22,00,22,1.30
2019,02,22,00,23,1.30
2019,02,22,00,24,1.30
2019,02,22,00,25,1.30
2019,02,22,00,26,1.30
2019,02,22,00,27,1.30
2019,02,22,00,28,1.30
2019,02,22,00,29,1.30
2019,02,22,00,30,1.30
2019,02,22,00,31,1.30
2019,02,22,00,32,1.40
2019,02,22,00,33,1.40
2019,02,22,00,34,1.40
2019,02,22,00,35,1.40
2019,02,22,00,36,1.50
2019,02,22,00,37,1.50
2019,02,22,00,38,1.50
2019,02,22,00,39,1.60
2019,02,22,00,40,1.60
2019,02,22,00,41,1.60
2019,02,22,00,42,1.60
2019,02,22,00,43,1.60
2019,02,22,00,44,1.50
2019,02,22,00,45,1.50
2019,02,22,00,46,1.50
2019,02,22,00,47,1.50
2019,02,22,00,48,1.50
2019,02,22,00,49,1.50
2019,02,22,00,50,1.50
2019,02,22,00,51,1.50
2019,02,22,00,52,1.50
2019,02,22,00,53,1.50
2019,02,22,00,54,1.50
2019,02,22,00,55,1.40
2019,02,22,00,56,1.40
2019,02,22,00,57,1.40
2019,02,22,00,58,1.40
2019,02,22,00,59,1.40
2019,02,22,01,00,1.30
2019,02,22,01,01,1.30
2019,02,22,01,02,1.30
2019,02,22,01,03,1.30
2019,02,22,01,04,1.30
2019,02,22,01,05,1.20
2019,02,22,01,06,1.20
2019,02,22,01,07,1.20
2019,02,22,01,08,1.20
2019,02,22,01,09,1.10
2019,02,22,01,10,1.10
2019,02,22,01,11,1.10
2019,02,22,01,12,1.10
2019,02,22,01,13,1.10
2019,02,22,01,14,1.00
2019,02,22,01,15,1.00
2019,02,22,01,16,1.00
2019,02,22,01,17,1.00
2019,02,22,01,18,0.90
2019,02,22,01,19,0.90
2019,02,22,01,20,0.90
2019,02,22,01,21,0.90
2019,02,22,01,22,0.90
2019,02,22,01,23,0.90
2019,02,22,01,24,0.90
2019,02,22,01,25,0.90
2019,02,22,01,26,0.90
2019,02,22,01,27,0.80
2019,02,22,01,28,0.80
2019,02,22,01,29,0.80
2019,02,22,01,30,0.80
2019,02,22,01,31,0.80
2019,02,22,01,32,0.80
2019,02,22,01,33,0.80
2019,02,22,01,34,0.80
2019,02,22,01,35,0.80
2019,02,22,01,36,0.80
2019,02,22,01,37,0.80
2019,02,22,01,38,0.80
2019,02,22,01,39,0.80
2019,02,22,01,40,0.80
2019,02,22,01,41,0.80
2019,02,22,01,42,0.80
2019,02,22,01,43,0.80
2019,02,22,01,44,0.80
2019,02,22,01,45,0.80
2019,02,22,01,46,0.80
2019,02,22,01,47,0.80
2019,02,22,01,48,0.80
2019,02,22,01,49,0.80
2019,02,22,01,50,0.80
2019,02,22,01,51,0.80
2019,02,22,01,52,0.80
2019,02,22,01,53,0.90
2019,02,22,01,54,0.90
2019,02,22,01,55,0.80
2019,02,22,01,56,0.80
2019,02,22,01,57,0.80
2019,02,22,01,58,0.90
2019,02,22,01,59,0.90
2019,02,22,02,00,0.90
2019,02,22,02,01,0.90
2019,02,22,02,02,0.90
2019,02,22,02,03,0.80
2019,02,22,02,04,0.90
2019,02,22,02,05,0.90
2019,02,22,02,06,0.90
2019,02,22,02,07,0.90
2019,02,22,02,08,0.90
2019,02,22,02,09,0.90
2019,02,22,02,10,0.90
2019,02,22,02,11,0.90
2019,02,22,02,12,1.00
2019,02,22,02,13,1.00
2019,02,22,02,14,1.00
2019,02,22,02,15,1.10
2019,02,22,02,16,1.10
2019,02,22,02,17,1.10
2019,02,22,02,18,1.10
2019,02,22,02,19,1.10
2019,02,22,02,20,1.10
2019,02,22,02,21,1.10
2019,02,22,02,22,1.10
2019,02,22,02,23,1.10
2019,02,22,02,24,1.10
2019,02,22,02,25,1.10
2019,02,22,02,26,1.10
2019,02,22,02,27,1.10
2019,02,22,02,28,1.10
2019,02,22,02,29,1.10
2019,02,22,02,30,1.10
2019,02,22,02,31,1.10
2019,02,22,02,32,1.10
2019,02,22,02,33,1.10
2019,02,22,02,34,1.10
2019,02,22,02,35,1.10
2019,02,22,02,36,1.10
2019,02,22,02,37,1.10
2019,02,22,02,38,1.10
2019,02,22,02,39,1.10
2019,02,22,02,40,1.10
2019,02,22,02,41,1.10
2019,02,22,02,42,1.10
2019,02,22,02,43,1.10
2019,02,22,02,44,1.10
2019,02,22,02,45,1.10
2019,02,22,02,46,1.10
2019,02,22,02,47,1.10
2019,02,22,02,48,1.10
2019,02,22,02,49,1.10
2019,02,22,02,50,1.10
2019,02,22,02,51,1.00
2019,02,22,02,52,1.00
2019,02,22,02,53,1.00
2019,02,22,02,54,1.00
2019,02,22,02,55,1.10
2019,02,22,02,56,1.10
2019,02,22,02,57,1.10
2019,02,22,02,58,1.10
2019,02,22,02,59,1.10
2019,02,22,03,00,1.10
2019,02,22,03,01,1.10
2019,02,22,03,02,1.10
2019,02,22,03,03,1.20
2019,02,22,03,04,1.20
2019,02,22,03,05,1.20
2019,02,22,03,06,1.20
2019,02,22,03,07,1.20
2019,02,22,03,08,1.20
2019,02,22,03,09,1.20
2019,02,22,03,10,1.20
2019,02,22,03,11,1.30
2019,02,22,03,12,1.30
2019,02,22,03,13,1.30
2019,02,22,03,14,1.30
2019,02,22,03,15,1.30
2019,02,22,03,16,1.30
2019,02,22,03,17,1.30
2019,02,22,03,18,1.30
2019,02,22,03,19,1.30
2019,02,22,03,20,1.30
2019,02,22,03,21,1.30
2019,02,22,03,22,1.30
2019,02,22,03,23,1.30
2019,02,22,03,24,1.30
2019,02,22,03,25,1.30
2019,02,22,03,26,1.30
2019,02,22,03,27,1.30
2019,02,22,03,28,1.30
2019,02,22,03,29,1.30
2019,02,22,03,30,1.30
2019,02,22,03,31,1.30
2019,02,22,03,32,1.30
2019,02,22,03,33,1.30
2019,02,22,03,34,1.30
2019,02,22,03,35,1.30
2019,02,22,03,36,1.30
2019,02,22,03,37,1.30
2019,02,22,03,38,1.30
2019,02,22,03,39,1.30
2019,02,22,03,40,1.30
2019,02,22,03,41,1.30
2019,02,22,03,42,1.30
2019,02,22,03,43,1.40
2019,02,22,03,44,1.50
2019,02,22,03,45,1.60
2019,02,22,03,46,1.80
2019,02,22,03,47,2.00
2019,02,22,03,48,2.20
2019,02,22,03,49,2.40
2019,02,22,03,50,2.50
2019,02,22,03,51,2.70
2019,02,22,03,52,2.80
2019,02,22,03,53,3.00
2019,02,22,03,54,3.10
2019,02,22,03,55,3.20
2019,02,22,03,56,3.30
2019,02,22,03,57,3.30
2019,02,22,03,58,3.50
2019,02,22,03,59,3.50
2019,02,22,04,00,3.60
2019,02,22,04,01,3.60
2019,02,22,04,02,3.70
2019,02,22,04,03,3.80
2019,02,22,04,04,3.80
2019,02,22,04,08,3.80
2019,02,22,04,09,3.80
2019,02,22,04,10,3.80
2019,02,22,04,11,3.90
2019,02,22,04,12,3.90
2019,02,22,04,13,3.90
2019,02,22,04,14,3.90
2019,02,22,04,15,3.90
2019,02,22,04,16,3.90
2019,02,22,04,17,3.90
2019,02,22,04,18,3.90
2019,02,22,04,19,3.90
2019,02,22,04,20,3.90
2019,02,22,04,21,3.80
2019,02,22,04,22,3.80
2019,02,22,04,23,3.80
2019,02,22,04,24,3.80
2019,02,22,04,25,3.80
2019,02,22,04,26,3.90
2019,02,22,04,27,3.90
2019,02,22,04,28,3.90
2019,02,22,04,29,3.90
2019,02,22,04,30,3.90
2019,02,22,04,31,3.90
2019,02,22,04,32,3.90
2019,02,22,04,33,3.80
2019,02,22,04,34,3.80
2019,02,22,04,35,3.80
2019,02,22,04,36,3.80
2019,02,22,04,37,3.80
2019,02,22,04,38,3.80
2019,02,22,04,39,3.80
2019,02,22,04,40,3.80
2019,02,22,04,41,3.80
2019,02,22,04,42,3.80
2019,02,22,04,43,3.80
2019,02,22,04,44,3.80
2019,02,22,04,45,3.80
2019,02,22,04,46,3.80
2019,02,22,04,47,3.80
2019,02,22,04,48,3.80
2019,02,22,04,49,3.80
2019,02,22,04,50,3.80
2019,02,22,04,51,3.80
2019,02,22,04,52,3.80
2019,02,22,04,53,3.80
2019,02,22,04,54,3.80
2019,02,22,04,55,3.80
2019,02,22,04,56,3.80
2019,02,22,04,57,3.80
2019,02,22,04,58,3.80
2019,02,22,04,59,3.80
2019,02,22,05,00,3.80
2019,02,22,05,01,3.80
2019,02,22,05,02,3.80
2019,02,22,05,03,3.70
2019,02,22,05,04,3.70
2019,02,22,05,05,3.70
2019,02,22,05,06,3.70
2019,02,22,05,07,3.70
2019,02,22,05,08,3.70
2019,02,22,05,09,3.70
2019,02,22,05,10,3.70
2019,02,22,05,11,3.70
2019,02,22,05,12,3.70
2019,02,22,05,13,3.70
2019,02,22,05,14,3.60
2019,02,22,05,15,3.60
2019,02,22,05,16,3.60
2019,02,22,05,17,3.60
2019,02,22,05,18,3.60
2019,02,22,05,19,3.60
2019,02,22,05,20,3.50
2019,02,22,05,21,3.50
2019,02,22,05,22,3.50
2019,02,22,05,23,3.50
2019,02,22,05,24,3.40
2019,02,22,05,25,3.40
2019,02,22,05,26,3.40
2019,02,22,05,27,3.40
2019,02,22,05,28,3.40
2019,02,22,05,29,3.40
2019,02,22,05,30,3.40
2019,02,22,05,31,3.40
2019,02,22,05,32,3.40
2019,02,22,05,33,3.40
2019,02,22,05,34,3.40
2019,02,22,05,35,3.40
2019,02,22,05,36,3.40
2019,02,22,05,37,3.40
2019,02,22,05,38,3.40
2019,02,22,05,39,3.40
2019,02,22,05,40,3.40
2019,02,22,05,41,3.40
2019,02,22,05,42,3.40
2019,02,22,05,43,3.40
2019,02,22,05,44,3.40
2019,02,22,05,45,3.40
2019,02,22,05,46,3.40
2019,02,22,05,47,3.50
2019,02,22,05,48,3.50
2019,02,22,05,49,3.50
2019,02,22,05,50,3.50
2019,02,22,05,51,3.50
2019,02,22,05,52,3.50
2019,02,22,05,53,3.50
2019,02,22,05,54,3.50
2019,02,22,05,55,3.50
2019,02,22,05,56,3.50
2019,02,22,05,57,3.50
2019,02,22,05,58,3.50
2019,02,22,05,59,3.50
2019,02,22,06,00,3.50
2019,02,22,06,01,3.50
2019,02,22,06,02,3.50
2019,02,22,06,03,3.50
2019,02,22,06,04,3.50
2019,02,22,06,05,3.50
2019,02,22,06,06,3.60
2019,02,22,06,07,3.60
2019,02,22,06,08,3.60
2019,02,22,06,09,3.60
2019,02,22,06,10,3.60
2019,02,22,06,11,3.60
2019,02,22,06,12,3.60
2019,02,22,06,13,3.60
2019,02,22,06,14,3.60
2019,02,22,06,15,3.60
2019,02,22,06,16,3.60
2019,02,22,06,17,3.50
2019,02,22,06,18,3.50
2019,02,22,06,19,3.50
2019,02,22,06,20,3.50
2019,02,22,06,21,3.50
2019,02,22,06,22,3.40
2019,02,22,06,23,3.40
2019,02,22,06,24,3.50
2019,02,22,06,25,3.40
2019,02,22,06,26,3.40
2019,02,22,06,27,3.40
2019,02,22,06,28,3.40
2019,02,22,06,29,3.50
2019,02,22,06,30,3.50
2019,02,22,06,31,3.50
2019,02,22,06,32,3.50
2019,02,22,06,33,3.50
2019,02,22,06,34,3.50
2019,02,22,06,35,3.50
2019,02,22,06,36,3.50
2019,02,22,06,37,3.50
2019,02,22,06,38,3.50
2019,02,22,06,39,3.50
2019,02,22,06,40,3.50
2019,02,22,06,41,3.50
2019,02,22,06,42,3.50
2019,02,22,06,43,3.50
2019,02,22,06,44,3.50
2019,02,22,06,45,3.50
2019,02,22,06,46,3.50
2019,02,22,06,47,3.50
2019,02,22,06,48,3.50
2019,02,22,06,49,3.50
2019,02,22,06,50,3.50
2019,02,22,06,51,3.50
2019,02,22,06,52,3.50
2019,02,22,06,53,3.50
2019,02,22,06,54,3.50
2019,02,22,06,55,3.50
2019,02,22,06,56,3.50
2019,02,22,06,57,3.50
2019,02,22,06,58,3.50
2019,02,22,06,59,3.50
2019,02,22,07,00,3.50
2019,02,22,07,01,3.50
2019,02,22,07,02,3.60
2019,02,22,07,03,3.60
2019,02,22,07,04,3.60
2019,02,22,07,05,3.70
2019,02,22,07,06,3.70
2019,02,22,07,07,3.70
2019,02,22,07,08,3.70
2019,02,22,07,09,3.70
2019,02,22,07,10,3.70
2019,02,22,07,11,3.80
2019,02,22,07,12,3.80
2019,02,22,07,13,3.80
2019,02,22,07,14,3.80
2019,02,22,07,15,3.80
2019,02,22,07,16,3.80
2019,02,22,07,17,3.80
2019,02,22,07,18,3.80
2019,02,22,07,19,3.80
2019,02,22,07,20,3.80
2019,02,22,07,21,3.80
2019,02,22,07,22,3.80
2019,02,22,07,23,3.80
2019,02,22,07,24,3.80
2019,02,22,07,25,3.80
2019,02,22,07,26,3.80
2019,02,22,07,27,3.80
2019,02,22,07,28,3.80
2019,02,22,07,29,3.80
2019,02,22,07,30,3.80
2019,02,22,07,31,3.80
2019,02,22,07,32,3.80
2019,02,22,07,33,3.80
2019,02,22,07,34,3.80
2019,02,22,07,35,3.80
2019,02,22,07,36,3.80
2019,02,22,07,37,3.80
2019,02,22,07,38,3.80
2019,02,22,07,39,3.80
2019,02,22,07,40,3.80
2019,02,22,07,41,3.80
2019,02,22,07,42,3.80
2019,02,22,07,43,3.80
2019,02,22,07,44,3.80
2019,02,22,07,45,3.80
2019,02,22,07,46,3.80
2019,02,22,07,47,3.90
2019,02,22,07,48,3.90
2019,02,22,07,49,3.90
2019,02,22,07,50,3.90
2019,02,22,07,51,3.90
2019,02,22,07,52,3.90
2019,02,22,07,53,3.90
2019,02,22,07,54,3.90
2019,02,22,07,55,3.90
2019,02,22,07,56,3.90
2019,02,22,07,57,3.90
2019,02,22,07,58,3.90
2019,02,22,07,59,3.90
2019,02,22,08,00,3.90
2019,02,22,08,01,3.90
2019,02,22,08,02,3.90
2019,02,22,08,03,3.90
2019,02,22,08,04,3.80
2019,02,22,08,05,3.80
2019,02,22,08,06,3.80
2019,02,22,08,07,3.80
2019,02,22,08,08,3.80
2019,02,22,08,09,3.80
2019,02,22,08,10,3.80
2019,02,22,08,11,3.80
2019,02,22,08,12,3.80
2019,02,22,08,13,3.80
2019,02,22,08,14,3.80
2019,02,22,08,15,3.80
2019,02,22,08,16,3.80
2019,02,22,08,17,3.80
2019,02,22,08,18,3.80
2019,02,22,08,19,3.80
2019,02,22,08,20,3.80
2019,02,22,08,21,3.80
2019,02,22,08,22,3.80
2019,02,22,08,23,3.70
2019,02,22,08,24,3.70
2019,02,22,08,25,3.70
2019,02,22,08,26,3.80
2019,02,22,08,27,3.80
2019,02,22,08,28,3.80
2019,02,22,08,29,3.80
2019,02,22,08,30,3.80
2019,02,22,08,31,3.80
2019,02,22,08,32,3.80
2019,02,22,08,33,3.80
2019,02,22,08,34,3.80
2019,02,22,08,35,3.70
2019,02,22,08,36,3.70
2019,02,22,08,37,3.80
2019,02,22,08,38,3.80
2019,02,22,08,39,3.80
2019,02,22,08,40,3.80
2019,02,22,08,41,3.80
2019,02,22,08,42,3.80
2019,02,22,08,43,3.80
2019,02,22,08,44,3.80
2019,02,22,08,45,3.80
2019,02,22,08,46,3.80
2019,02,22,08,47,3.80
2019,02,22,08,48,3.80
2019,02,22,08,49,3.80
2019,02,22,08,50,3.90
2019,02,22,08,51,3.90
2019,02,22,08,52,3.90
2019,02,22,08,53,3.90
2019,02,22,08,54,3.90
2019,02,22,08,55,3.90
2019,02,22,08,56,3.90
2019,02,22,08,57,3.90
2019,02,22,08,58,3.90
2019,02,22,08,59,3.90
2019,02,22,09,00,3.90
2019,02,22,09,01,3.90
2019,02,22,09,02,3.90
2019,02,22,09,03,3.90
2019,02,22,09,04,3.90
2019,02,22,09,05,3.90
2019,02,22,09,06,3.90
2019,02,22,09,07,3.90
2019,02,22,09,08,3.90
2019,02,22,09,09,3.90
2019,02,22,09,10,3.90
2019,02,22,09,11,4.00
2019,02,22,09,12,4.00
2019,02,22,09,13,4.00
2019,02,22,09,14,4.00
2019,02,22,09,15,4.00
2019,02,22,09,16,4.00
2019,02,22,09,17,4.00
2019,02,22,09,18,4.00
2019,02,22,09,19,4.00
2019,02,22,09,20,3.90
2019,02,22,09,21,3.90
2019,02,22,09,22,3.90
2019,02,22,09,23,3.80
2019,02,22,09,24,3.80
2019,02,22,09,25,3.80
2019,02,22,09,26,3.80
2019,02,22,09,27,3.70
2019,02,22,09,28,3.70
2019,02,22,09,29,3.70
2019,02,22,09,30,3.60
2019,02,22,09,31,3.60
2019,02,22,09,32,3.40
2019,02,22,09,33,3.30
2019,02,22,09,34,3.20
2019,02,22,09,35,3.20
2019,02,22,09,36,3.10
2019,02,22,09,37,3.10
2019,02,22,09,38,3.00
2019,02,22,09,39,3.00
2019,02,22,09,40,2.90
2019,02,22,09,41,2.80
2019,02,22,09,42,2.70
2019,02,22,09,43,2.70
2019,02,22,09,44,2.60
2019,02,22,09,45,2.60
2019,02,22,09,46,2.50
2019,02,22,09,47,2.50
2019,02,22,09,48,2.40
2019,02,22,09,49,2.40
2019,02,22,09,50,2.30
2019,02,22,09,51,2.20
2019,02,22,09,52,2.20
2019,02,22,09,53,2.10
2019,02,22,09,54,2.10
2019,02,22,09,55,2.00
2019,02,22,09,56,1.90
2019,02,22,09,57,1.90
2019,02,22,09,58,1.90
2019,02,22,09,59,1.80
2019,02,22,10,00,1.80
2019,02,22,10,01,1.80
2019,02,22,10,02,1.80
2019,02,22,10,03,1.80
2019,02,22,10,04,1.80
2019,02,22,10,05,1.80
2019,02,22,10,06,1.80
2019,02,22,10,07,1.80
2019,02,22,10,08,1.80
2019,02,22,10,09,1.80
2019,02,22,10,10,1.80
2019,02,22,10,11,1.80
2019,02,22,10,12,1.80
2019,02,22,10,13,1.80
2019,02,22,10,14,1.80
2019,02,22,10,15,1.90
2019,02,22,10,16,1.90
2019,02,22,10,17,1.90
2019,02,22,10,18,1.90
2019,02,22,10,19,1.90
2019,02,22,10,20,1.90
2019,02,22,10,21,1.90
2019,02,22,10,22,1.90
2019,02,22,10,23,2.00
2019,02,22,10,24,2.00
2019,02,22,10,25,2.00
2019,02,22,10,26,2.00
2019,02,22,10,27,2.00
2019,02,22,10,28,2.10
2019,02,22,10,29,2.10
2019,02,22,10,30,2.10
2019,02,22,10,31,2.10
2019,02,22,10,32,2.10
2019,02,22,10,33,2.10
2019,02,22,10,34,2.00
2019,02,22,10,35,2.00
2019,02,22,10,36,2.00
2019,02,22,10,37,2.00
2019,02,22,10,38,2.00
2019,02,22,10,39,2.00
2019,02,22,10,40,2.00
2019,02,22,10,41,2.00
2019,02,22,10,42,1.90
2019,02,22,10,43,1.90
2019,02,22,10,44,1.90
2019,02,22,10,45,2.00
2019,02,22,10,46,1.90
2019,02,22,10,47,1.90
2019,02,22,10,48,1.90
2019,02,22,10,49,1.90
2019,02,22,10,50,1.90
2019,02,22,10,51,2.00
2019,02,22,10,52,1.90
2019,02,22,10,53,1.90
2019,02,22,10,54,2.00
2019,02,22,10,55,2.00
2019,02,22,10,56,2.00
2019,02,22,10,57,2.00
2019,02,22,10,58,2.00
2019,02,22,10,59,2.10
2019,02,22,11,00,2.10
2019,02,22,11,01,2.10
2019,02,22,11,02,2.10
2019,02,22,11,03,2.10
2019,02,22,11,04,2.10
2019,02,22,11,05,2.10
2019,02,22,11,06,2.10
2019,02,22,11,07,2.20
2019,02,22,11,08,2.20
2019,02,22,11,09,2.20
2019,02,22,11,10,2.20
2019,02,22,11,11,2.20
2019,02,22,11,12,2.20
2019,02,22,11,13,2.30
2019,02,22,11,14,2.30
2019,02,22,11,15,2.30
2019,02,22,11,16,2.30
2019,02,22,11,17,2.30
2019,02,22,11,18,2.30
2019,02,22,11,19,2.40
2019,02,22,11,20,2.40
2019,02,22,11,21,2.40
2019,02,22,11,22,2.40
2019,02,22,11,23,2.40
2019,02,22,11,24,2.40
2019,02,22,11,25,2.40
2019,02,22,11,26,2.40
2019,02,22,11,27,2.50
2019,02,22,11,28,2.50
2019,02,22,11,29,2.50
2019,02,22,11,30,2.60
2019,02,22,11,31,2.60
2019,02,22,11,32,2.70
2019,02,22,11,33,2.70
2019,02,22,11,34,2.80
2019,02,22,11,35,2.80
2019,02,22,11,36,2.90
2019,02,22,11,37,3.00
2019,02,22,11,38,3.00
2019,02,22,11,39,3.10
2019,02,22,11,40,3.10
2019,02,22,11,41,3.20
2019,02,22,11,42,3.20
2019,02,22,11,43,3.30
2019,02,22,11,44,3.30
2019,02,22,11,45,3.40
2019,02,22,11,46,3.40
2019,02,22,11,47,3.50
2019,02,22,11,48,3.50
2019,02,22,11,49,3.60
2019,02,22,11,50,3.60
2019,02,22,11,51,3.70
2019,02,22,11,52,3.70
2019,02,22,11,53,3.70
2019,02,22,11,54,3.80
2019,02,22,11,55,3.80
2019,02,22,11,56,3.90
2019,02,22,11,57,4.00
2019,02,22,11,58,4.00
2019,02,22,11,59,4.10
2019,02,22,12,00,4.10
2019,02,22,12,01,4.20
2019,02,22,12,02,4.20
2019,02,22,12,03,4.20
2019,02,22,12,04,4.30
2019,02,22,12,05,4.30
2019,02,22,12,06,4.30
2019,02,22,12,07,4.40
2019,02,22,12,08,4.50
2019,02,22,12,09,4.50
2019,02,22,12,10,4.60
2019,02,22,12,11,4.60
2019,02,22,12,12,4.70
2019,02,22,12,13,4.70
2019,02,22,12,14,4.80
2019,02,22,12,15,4.80
2019,02,22,12,16,4.80
2019,02,22,12,17,4.80
2019,02,22,12,18,4.80
2019,02,22,12,19,4.80
2019,02,22,12,20,4.80
2019,02,22,12,21,4.80
2019,02,22,12,22,4.80
2019,02,22,12,23,4.80
2019,02,22,12,24,4.90
2019,02,22,12,25,4.90
2019,02,22,12,26,4.90
2019,02,22,12,27,4.90
2019,02,22,12,28,5.00
2019,02,22,12,29,5.00
2019,02,22,12,30,5.00
2019,02,22,12,31,5.00
2019,02,22,12,32,5.00
2019,02,22,12,33,5.00
2019,02,22,12,34,5.00
2019,02,22,12,35,5.10
2019,02,22,12,36,5.10
2019,02,22,12,37,5.10
2019,02,22,12,38,5.20
2019,02,22,12,39,5.20
2019,02,22,12,40,5.30
2019,02,22,12,41,5.30
2019,02,22,12,42,5.40
2019,02,22,12,43,5.50
2019,02,22,12,44,5.50
2019,02,22,12,45,5.60
2019,02,22,12,46,5.70
2019,02,22,12,47,5.80
2019,02,22,12,48,5.80
2019,02,22,12,49,5.90
2019,02,22,12,50,5.90
2019,02,22,12,51,6.00
2019,02,22,12,52,6.10
2019,02,22,12,53,6.20
2019,02,22,12,54,6.20
2019,02,22,12,55,6.30
2019,02,22,12,56,6.30
2019,02,22,12,57,6.40
2019,02,22,12,58,6.50
2019,02,22,12,59,6.50
2019,02,22,13,00,6.60
2019,02,22,13,01,6.70
2019,02,22,13,02,6.70
2019,02,22,13,03,6.80
2019,02,22,13,04,6.80
2019,02,22,13,05,6.90
2019,02,22,13,06,6.90
2019,02,22,13,07,6.90
2019,02,22,13,08,7.00
2019,02,22,13,09,7.00
2019,02,22,13,10,7.00
2019,02,22,13,11,7.10
2019,02,22,13,12,7.10
2019,02,22,13,13,7.20
2019,02,22,13,14,7.20
2019,02,22,13,15,7.20
2019,02,22,13,16,7.20
2019,02,22,13,17,7.20
2019,02,22,13,18,7.30
2019,02,22,13,19,7.30
2019,02,22,13,20,7.30
2019,02,22,13,21,7.40
2019,02,22,13,22,7.50
2019,02,22,13,23,7.50
2019,02,22,13,24,7.50
2019,02,22,13,25,7.60
2019,02,22,13,26,7.60
2019,02,22,13,27,7.60
2019,02,22,13,28,7.60
2019,02,22,13,29,7.60
2019,02,22,13,30,7.60
2019,02,22,13,31,7.60
2019,02,22,13,32,7.60
2019,02,22,13,33,7.60
2019,02,22,13,34,7.60
2019,02,22,13,35,7.60
2019,02,22,13,36,7.60
2019,02,22,13,37,7.60
2019,02,22,13,38,7.70
2019,02,22,13,39,7.70
2019,02,22,13,40,7.70
2019,02,22,13,41,7.70
2019,02,22,13,42,7.70
2019,02,22,13,43,7.70
2019,02,22,13,44,7.80
2019,02,22,13,45,7.80
2019,02,22,13,46,7.80
2019,02,22,13,47,7.70
2019,02,22,13,48,7.70
2019,02,22,13,49,7.80
2019,02,22,13,50,7.80
2019,02,22,13,51,7.80
2019,02,22,13,52,7.80
2019,02,22,13,53,7.90
2019,02,22,13,54,7.90
2019,02,22,13,55,8.00
2019,02,22,13,56,8.00
2019,02,22,13,57,8.00
2019,02,22,13,58,8.00
2019,02,22,13,59,8.10
2019,02,22,14,00,8.10
2019,02,22,14,01,8.10
2019,02,22,14,02,8.10
2019,02,22,14,03,8.00
2019,02,22,14,04,8.00
2019,02,22,14,05,8.00
2019,02,22,14,06,8.00
2019,02,22,14,07,8.00
2019,02,22,14,08,8.00
2019,02,22,14,09,8.00
2019,02,22,14,10,8.00
2019,02,22,14,11,8.00
2019,02,22,14,12,8.10
2019,02,22,14,13,8.10
2019,02,22,14,14,8.10
2019,02,22,14,15,8.20
2019,02,22,14,16,8.20
2019,02,22,14,17,8.20
2019,02,22,14,18,8.20
2019,02,22,14,19,8.30
2019,02,22,14,20,8.30
2019,02,22,14,21,8.30
2019,02,22,14,22,8.40
2019,02,22,14,23,8.40
2019,02,22,14,24,8.40
2019,02,22,14,25,8.40
2019,02,22,14,26,8.40
2019,02,22,14,27,8.40
2019,02,22,14,28,8.30
2019,02,22,14,29,8.40
2019,02,22,14,30,8.40
2019,02,22,14,31,8.40
2019,02,22,14,32,8.40
2019,02,22,14,33,8.40
2019,02,22,14,34,8.40
2019,02,22,14,35,8.40
2019,02,22,14,36,8.40
2019,02,22,14,37,8.40
2019,02,22,14,38,8.40
2019,02,22,14,39,8.40
2019,02,22,14,40,8.40
2019,02,22,14,41,8.40
2019,02,22,14,42,8.40
2019,02,22,14,43,8.50
2019,02,22,14,44,8.50
2019,02,22,14,45,8.50
2019,02,22,14,46,8.60
2019,02,22,14,47,8.60
2019,02,22,14,48,8.60
2019,02,22,14,49,8.60
2019,02,22,14,50,8.70
2019,02,22,14,51,8.70
2019,02,22,14,52,8.70
2019,02,22,14,53,8.60
2019,02,22,14,54,8.60
2019,02,22,14,55,8.50
2019,02,22,14,56,8.30
2019,02,22,14,57,8.20
2019,02,22,14,58,8.10
2019,02,22,14,59,8.10
2019,02,22,15,00,8.10
2019,02,22,15,01,8.00
2019,02,22,15,02,8.10
2019,02,22,15,03,8.00
2019,02,22,15,04,8.00
2019,02,22,15,05,8.00
2019,02,22,15,06,8.10
2019,02,22,15,07,8.10
2019,02,22,15,08,8.10
2019,02,22,15,09,8.20
2019,02,22,15,10,8.20
2019,02,22,15,11,8.20
2019,02,22,15,12,8.10
2019,02,22,15,13,8.10
2019,02,22,15,14,8.10
2019,02,22,15,15,8.10
2019,02,22,15,16,8.10
2019,02,22,15,17,8.10
2019,02,22,15,18,8.10
2019,02,22,15,19,8.10
2019,02,22,15,20,8.10
2019,02,22,15,21,8.00
2019,02,22,15,22,8.00
2019,02,22,15,23,8.00
2019,02,22,15,24,8.00
2019,02,22,15,25,8.00
2019,02,22,15,26,8.00
2019,02,22,15,27,8.10
2019,02,22,15,28,8.10
2019,02,22,15,29,8.20
2019,02,22,15,30,8.20
2019,02,22,15,31,8.20
2019,02,22,15,32,8.20
2019,02,22,15,33,8.20
2019,02,22,15,34,8.10
2019,02,22,15,35,8.10
2019,02,22,15,36,8.00
2019,02,22,15,37,8.00
2019,02,22,15,38,7.90
2019,02,22,15,39,7.90
2019,02,22,15,40,7.90
2019,02,22,15,41,7.90
2019,02,22,15,42,7.90
2019,02,22,15,43,7.90
2019,02,22,15,44,7.90
2019,02,22,15,45,7.90
2019,02,22,15,46,7.90
2019,02,22,15,47,7.90
2019,02,22,15,48,7.90
2019,02,22,15,49,7.90
2019,02,22,15,50,7.90
2019,02,22,15,51,7.90
2019,02,22,15,52,8.00
2019,02,22,15,53,8.00
2019,02,22,15,54,8.00
2019,02,22,15,55,8.00
2019,02,22,15,56,8.00
2019,02,22,15,57,8.00
2019,02,22,15,58,8.00
2019,02,22,15,59,8.00
2019,02,22,16,00,8.10
2019,02,22,16,01,8.10
2019,02,22,16,02,8.00
2019,02,22,16,03,8.00
2019,02,22,16,04,8.00
2019,02,22,16,05,8.00
2019,02,22,16,06,8.00
2019,02,22,16,07,8.00
2019,02,22,16,08,8.00
2019,02,22,16,09,8.00
2019,02,22,16,10,8.00
2019,02,22,16,11,8.00
2019,02,22,16,12,8.00
2019,02,22,16,13,7.90
2019,02,22,16,14,7.80
2019,02,22,16,15,7.60
2019,02,22,16,16,7.40
2019,02,22,16,17,7.30
2019,02,22,16,18,7.20
2019,02,22,16,19,7.10
2019,02,22,16,20,7.00
2019,02,22,16,21,6.90
2019,02,22,16,22,6.90
2019,02,22,16,23,6.80
2019,02,22,16,24,6.80
2019,02,22,16,25,6.80
2019,02,22,16,26,6.80
2019,02,22,16,27,6.70
2019,02,22,16,28,6.70
2019,02,22,16,29,6.70
2019,02,22,16,30,6.70
2019,02,22,16,31,6.70
2019,02,22,16,32,6.70
2019,02,22,16,33,6.70
2019,02,22,16,34,6.70
2019,02,22,16,35,6.60
2019,02,22,16,36,6.60
2019,02,22,16,37,6.60
2019,02,22,16,38,6.60
2019,02,22,16,39,6.60
2019,02,22,16,40,6.60
2019,02,22,16,41,6.60
2019,02,22,16,42,6.60
2019,02,22,16,43,6.60
2019,02,22,16,44,6.60
2019,02,22,16,45,6.60
2019,02,22,16,46,6.60
2019,02,22,16,47,6.60
2019,02,22,16,48,6.60
2019,02,22,16,49,6.60
2019,02,22,16,50,6.60
2019,02,22,16,51,6.60
2019,02,22,16,52,6.50
2019,02,22,16,53,6.50
2019,02,22,16,54,6.50
2019,02,22,16,55,6.50
2019,02,22,16,56,6.50
2019,02,22,16,57,6.50
2019,02,22,16,58,6.50
2019,02,22,16,59,6.50
2019,02,22,17,00,6.50
2019,02,22,17,01,6.50
2019,02,22,17,02,6.50
2019,02,22,17,03,6.50
2019,02,22,17,04,6.50
2019,02,22,17,05,6.40
2019,02,22,17,06,6.40
2019,02,22,17,07,6.40
2019,02,22,17,08,6.40
2019,02,22,17,09,6.40
2019,02,22,17,10,6.40
2019,02,22,17,11,6.40
2019,02,22,17,12,6.40
2019,02,22,17,13,6.30
2019,02,22,17,14,6.30
2019,02,22,17,15,6.30
2019,02,22,17,16,6.30
2019,02,22,17,17,6.30
2019,02,22,17,18,6.30
2019,02,22,17,19,6.20
2019,02,22,17,20,6.20
2019,02,22,17,21,6.20
2019,02,22,17,22,6.20
2019,02,22,17,23,6.10
2019,02,22,17,24,6.10
2019,02,22,17,25,6.10
2019,02,22,17,26,6.10
2019,02,22,17,27,6.10
2019,02,22,17,28,6.00
2019,02,22,17,29,6.00
2019,02,22,17,30,6.00
2019,02,22,17,31,5.90
2019,02,22,17,32,5.90
2019,02,22,17,33,5.90
2019,02,22,17,34,5.90
2019,02,22,17,35,5.80
2019,02,22,17,36,5.80
2019,02,22,17,37,5.80
2019,02,22,17,38,5.80
2019,02,22,17,39,5.70
2019,02,22,17,40,5.70
2019,02,22,17,41,5.70
2019,02,22,17,42,5.70
2019,02,22,17,43,5.60
2019,02,22,17,44,5.60
2019,02,22,17,45,5.60
2019,02,22,17,46,5.60
2019,02,22,17,47,5.50
2019,02,22,17,48,5.50
2019,02,22,17,49,5.40
2019,02,22,17,50,5.40
2019,02,22,17,51,5.30
2019,02,22,17,52,5.30
2019,02,22,17,53,5.30
2019,02,22,17,54,5.30
2019,02,22,17,55,5.20
2019,02,22,17,56,5.20
2019,02,22,17,57,5.20
2019,02,22,17,58,5.20
2019,02,22,17,59,5.10
2019,02,22,18,00,5.10
2019,02,22,18,01,5.10
2019,02,22,18,02,5.00
2019,02,22,18,03,5.00
2019,02,22,18,04,4.90
2019,02,22,18,05,4.80
2019,02,22,18,06,4.80
2019,02,22,18,07,4.80
2019,02,22,18,08,4.70
2019,02,22,18,09,4.70